Deer Park, WA

8:37 PM PDT on April 27, 2017 (GMT -0700)
Deer Park

Weather History for KDEW - February, 2013

Change the Weather History Date:

Tuesday, February 5, 2013

  Actual Average Record
Temperature  
Mean Temperature 32 °F 29 °F  
Max Temperature 39 °F 37 °F 45 °F (2012)
Min Temperature 24 °F 22 °F 0 °F (2014)
Degree Days  
Heating Degree Days 33 36  
Month to date heating degree days 169 180  
Since 1 July heating degree days 4277 4576  
Cooling Degree Days 0 0  
Month to date cooling degree days 0 0  
Year to date cooling degree days 0 0  
Moisture  
Dew Point 30 °F    
Average Humidity 93    
Maximum Humidity 100    
Minimum Humidity 85    
Precipitation  
Precipitation T in 0.07 in 0.50 in (2015)
Month to date precipitation T 0.35  
Year to date precipitation 1.50 2.98  
Sea Level Pressure  
Sea Level Pressure 29.89 in    
Wind  
Wind Speed 4 mph (South)    
Max Wind Speed 14 mph    
Max Gust Speed 17 mph    
Visibility 6 miles    
Events Fog    
T = Trace of Precipitation, MM = Missing Value Source: NWS Daily Summary

Daily Weather History Graph

Daily Weather History Graph

Search for Another Location

Airport or City:

Trip Planner

Search our weather history database for the weather conditions in past years. The results will help you decide how hot, cold, wet, or windy it might be!

Date:

Astronomy

Feb. 05, 2013 Rise Set
Actual Time 7:11 AM PST 4:56 PM PST
Civil Twilight 6:38 AM PST 5:29 PM PST
Nautical Twilight 6:01 AM PST 6:06 PM PST
Astronomical Twilight 5:25 AM PST 6:42 PM PST
Moon 3:06 AM PST (2/5) 12:09 PM PST (2/5)
Length of Visible Light 10h 51m
Length of Day
9h 45m
Waning Crescent, 25% of the Moon is Illuminated
Feb 5
Waning Crescent
Feb 9
New
Feb 17
First Quarter
Feb 25
Full
Mar 4
Last Quarter

Hourly Weather History & Observations

Time (PST) Temp. Windchill Dew Point Humidity Pressure Visibility Wind Dir Wind Speed Gust Speed Precip Events Conditions
12:53 AM 28.9 °F 23.9 °F 28.0 °F 96% 30.01 in 5.0 mi North 4.6 mph - N/A   Overcast
1:53 AM 30.0 °F 26.5 °F 30.0 °F 100% 30.00 in 7.0 mi North 3.5 mph - N/A   Overcast
2:53 AM 30.9 °F - 30.0 °F 96% 29.98 in 5.0 mi Calm Calm - N/A   Overcast
3:53 AM 30.9 °F - 30.0 °F 96% 29.96 in 6.0 mi Calm Calm - N/A   Overcast
4:53 AM 33.1 °F - 32.0 °F 96% 29.92 in 10.0 mi Calm Calm - N/A   Mostly Cloudy
5:47 AM 26.6 °F - 26.6 °F 100% 29.87 in 1.8 mi Calm Calm - N/A   Clear
5:48 AM 26.6 °F - 26.6 °F 100% 29.87 in 1.2 mi Calm Calm - N/A   Partly Cloudy
5:50 AM 26.6 °F 22.6 °F 26.6 °F 100% 29.87 in 0.8 mi West 3.5 mph - N/A   Partly Cloudy
5:53 AM 27.0 °F - 27.0 °F 100% 29.93 in 0.5 mi Calm Calm - N/A Fog Light Freezing Fog
6:05 AM 26.6 °F - 26.6 °F 100% 29.86 in 0.2 mi Calm Calm - N/A Fog Light Freezing Fog
6:25 AM 26.6 °F 22.6 °F 24.8 °F 93% 29.86 in 1.2 mi North 3.5 mph - N/A   Partly Cloudy
6:30 AM 26.6 °F 21.2 °F 26.6 °F 100% 29.86 in 3.0 mi North 4.6 mph - N/A   Partly Cloudy
6:53 AM 28.0 °F 24.2 °F 28.0 °F 100% 29.92 in 9.0 mi NNE 3.5 mph - N/A   Clear
7:36 AM 26.6 °F - 26.6 °F 100% 29.85 in 1.8 mi Calm Calm - N/A   Clear
7:48 AM 28.4 °F - 26.6 °F 93% 29.84 in 0.5 mi Calm Calm - N/A Fog Light Freezing Fog
7:53 AM 27.0 °F - 27.0 °F 100% 29.91 in 0.2 mi Calm Calm - N/A Fog Light Freezing Fog
8:17 AM 24.8 °F 20.5 °F 24.8 °F 100% 29.85 in 2.0 mi WNW 3.5 mph - N/A   Overcast
8:25 AM 24.8 °F - 24.8 °F 100% 29.85 in 4.0 mi Calm Calm - N/A   Mostly Cloudy
8:53 AM 26.1 °F - 26.1 °F 100% 29.91 in 2.5 mi Calm Calm - N/A   Partly Cloudy
9:17 AM 26.6 °F - 26.6 °F 100% 29.84 in 4.0 mi Calm Calm - N/A   Partly Cloudy
9:53 AM 28.0 °F - 28.0 °F 100% 29.91 in 4.0 mi Calm Calm - N/A   Overcast
10:53 AM 32.0 °F - 32.0 °F 100% 29.90 in 8.0 mi Calm Calm - N/A   Overcast
11:53 AM 36.0 °F 31.1 °F 32.0 °F 86% 29.88 in 10.0 mi SSE 5.8 mph - N/A   Overcast
12:53 PM 37.0 °F 32.4 °F 33.1 °F 86% 29.86 in 10.0 mi South 5.8 mph - N/A   Mostly Cloudy
1:34 PM 37.4 °F 30.3 °F 33.8 °F 87% 29.81 in 10.0 mi SSW 10.4 mph - N/A   Overcast
1:53 PM 37.9 °F 29.6 °F 33.1 °F 83% 29.87 in 10.0 mi SW 13.8 mph - N/A   Overcast
2:36 PM 37.4 °F 30.3 °F 33.8 °F 87% 29.81 in 10.0 mi South 10.4 mph - 0.00 in   Overcast
2:53 PM 37.0 °F 32.4 °F 34.0 °F 89% 29.87 in 10.0 mi SSW 5.8 mph - 0.00 in   Overcast
3:24 PM 37.4 °F 32.8 °F 33.8 °F 87% 29.82 in 10.0 mi South 5.8 mph - N/A   Overcast
3:53 PM 37.9 °F - 34.0 °F 86% 29.87 in 10.0 mi Calm Calm - N/A   Overcast
4:53 PM 37.9 °F 35.5 °F 33.1 °F 83% 29.88 in 10.0 mi Variable 3.5 mph - N/A   Overcast
5:53 PM 37.0 °F 32.4 °F 33.1 °F 86% 29.89 in 10.0 mi SSE 5.8 mph - N/A   Overcast
6:53 PM 37.0 °F 31.6 °F 34.0 °F 89% 29.90 in 10.0 mi SSE 6.9 mph - N/A   Overcast
7:18 PM 35.6 °F 32.8 °F 33.8 °F 93% 29.85 in 10.0 mi SSE 3.5 mph - N/A   Overcast
7:53 PM 37.0 °F 32.4 °F 34.0 °F 89% 29.91 in 10.0 mi SSE 5.8 mph - N/A   Overcast
8:53 PM 37.0 °F 31.0 °F 35.1 °F 93% 29.92 in 10.0 mi SSE 8.1 mph - N/A   Overcast
9:29 PM 35.6 °F 30.7 °F 33.8 °F 93% 29.86 in 10.0 mi SSE 5.8 mph - N/A   Partly Cloudy
9:53 PM 36.0 °F 29.6 °F 34.0 °F 93% 29.93 in 10.0 mi South 8.1 mph - N/A   Clear
11:53 PM 34.0 °F 26.6 °F 32.0 °F 92% 29.94 in 10.0 mi South 9.2 mph - N/A   Partly Cloudy